GLO1140 SBGR-SBFL

Flight info

Callsign GLO1140
Flight time 0h 51m
Altitude 34000
Route MADNI UZ92 PUBIS
Aircraft B38M/M-SDE1FGHILORVWXY/HB1

Departure

Time 2026-04-25 15:48
Airport São Paulo/Guarulhos–Governor André Franco Montoro International Airport (SBGR)

Arrival

Time 2026-04-25 16:39
Airport Hercílio Luz International Airport (SBFL)
Time Latitude Longitude Altitude Speed Heading
2026-04-25 15:13 -23.42793 -46.48062 2471 ft 0 kts 84°
2026-04-25 15:31 -23.42794 -46.48067 2471 ft 2 kts 84°
2026-04-25 15:31 -23.42795 -46.48088 2473 ft 3 kts 86°
2026-04-25 15:32 -23.42797 -46.48110 2471 ft 2 kts 85°
2026-04-25 15:32 -23.42797 -46.48129 2471 ft 3 kts 99°
2026-04-25 15:32 -23.42791 -46.48147 2473 ft 3 kts 135°
2026-04-25 15:33 -23.42757 -46.48159 2471 ft 2 kts 175°
2026-04-25 15:33 -23.42751 -46.48159 2471 ft 0 kts 174°
2026-04-25 15:36 -23.42788 -46.48156 2476 ft 10 kts 174°
2026-04-25 15:36 -23.42887 -46.48146 2472 ft 16 kts 175°
2026-04-25 15:36 -23.43005 -46.48135 2471 ft 18 kts 175°
2026-04-25 15:37 -23.43130 -46.48116 2471 ft 19 kts 166°
2026-04-25 15:37 -23.43181 -46.48101 2471 ft 0 kts 165°
2026-04-25 15:37 -23.43192 -46.48092 2471 ft 6 kts 129°
2026-04-25 15:37 -23.43168 -46.48006 2471 ft 20 kts 66°
2026-04-25 15:38 -23.43117 -46.47831 2472 ft 27 kts 73°
2026-04-25 15:38 -23.43064 -46.47629 2472 ft 29 kts 74°
2026-04-25 15:38 -23.43007 -46.47418 2472 ft 29 kts 72°
2026-04-25 15:38 -23.42949 -46.47203 2475 ft 30 kts 74°
2026-04-25 15:39 -23.42889 -46.46985 2471 ft 30 kts 72°
2026-04-25 15:39 -23.42828 -46.46764 2472 ft 31 kts 73°
2026-04-25 15:39 -23.42769 -46.46539 2471 ft 31 kts 73°
2026-04-25 15:39 -23.42710 -46.46322 2471 ft 26 kts 75°
2026-04-25 15:40 -23.42662 -46.46140 2471 ft 25 kts 73°
2026-04-25 15:40 -23.42628 -46.46014 2472 ft 26 kts 73°
2026-04-25 15:40 -23.42558 -46.45761 2475 ft 27 kts 73°
2026-04-25 15:40 -23.42505 -46.45564 2471 ft 27 kts 73°
2026-04-25 15:41 -23.42451 -46.45363 2471 ft 27 kts 73°
2026-04-25 15:41 -23.42408 -46.45204 2471 ft 21 kts 74°
2026-04-25 15:41 -23.42386 -46.45124 2473 ft 0 kts 73°
2026-04-25 15:43 -23.42386 -46.45123 2473 ft 1 kts 73°
2026-04-25 15:43 -23.42372 -46.45070 2473 ft 14 kts 73°
2026-04-25 15:43 -23.42356 -46.44955 2472 ft 11 kts 104°
2026-04-25 15:44 -23.42367 -46.44931 2474 ft 0 kts 126°
2026-04-25 15:45 -23.42373 -46.44923 2475 ft 5 kts 128°
2026-04-25 15:46 -23.42478 -46.44896 2472 ft 17 kts 205°
2026-04-25 15:46 -23.42515 -46.44957 2473 ft 0 kts 254°
2026-04-25 15:47 -23.42542 -46.45057 2473 ft 48 kts 253°
2026-04-25 15:47 -23.42714 -46.45696 2472 ft 125 kts 253°
2026-04-25 15:47 -23.42997 -46.46842 2527 ft 183 kts 259°
2026-04-25 15:48 -23.43407 -46.48262 3200 ft 206 kts 255°
2026-04-25 15:48 -23.43869 -46.49767 4258 ft 212 kts 253°
2026-04-25 15:48 -23.44320 -46.51308 5290 ft 217 kts 256°
2026-04-25 15:48 -23.44735 -46.52891 6308 ft 219 kts 255°
2026-04-25 15:49 -23.45164 -46.54494 7223 ft 222 kts 255°
2026-04-25 15:49 -23.45662 -46.56138 8012 ft 233 kts 247°
2026-04-25 15:49 -23.46718 -46.57507 8780 ft 246 kts 209°
2026-04-25 15:49 -23.48345 -46.57772 10000 ft 240 kts 172°
2026-04-25 15:50 -23.49988 -46.57327 10735 ft 247 kts 172°
2026-04-25 15:50 -23.51678 -46.57041 11488 ft 250 kts 175°
2026-04-25 15:50 -23.53406 -46.56785 12295 ft 254 kts 175°
2026-04-25 15:50 -23.55207 -46.56519 12836 ft 269 kts 174°
2026-04-25 15:51 -23.57103 -46.56254 13442 ft 280 kts 177°
2026-04-25 15:51 -23.58415 -46.56317 13976 ft 277 kts 195°
2026-04-25 15:51 -23.60620 -46.57621 14868 ft 277 kts 227°
2026-04-25 15:51 -23.61649 -46.59386 15544 ft 278 kts 250°
2026-04-25 15:52 -23.62084 -46.61451 16222 ft 281 kts 259°
2026-04-25 15:52 -23.62427 -46.63565 16950 ft 283 kts 260°
2026-04-25 15:52 -23.62961 -46.65664 17399 ft 297 kts 243°
2026-04-25 15:52 -23.64089 -46.67634 17632 ft 316 kts 239°
2026-04-25 15:53 -23.65275 -46.69734 17781 ft 335 kts 240°
2026-04-25 15:53 -23.66541 -46.71955 17960 ft 352 kts 239°
2026-04-25 15:53 -23.67866 -46.74257 18295 ft 363 kts 239°
2026-04-25 15:53 -23.69236 -46.76569 18865 ft 364 kts 234°
2026-04-25 15:54 -23.71066 -46.78503 19367 ft 371 kts 217°
2026-04-25 15:54 -23.73410 -46.79747 19868 ft 379 kts 200°
2026-04-25 15:54 -23.75954 -46.80452 20346 ft 383 kts 198°
2026-04-25 15:54 -23.78553 -46.81133 20815 ft 386 kts 197°
2026-04-25 15:55 -23.81176 -46.81793 21295 ft 388 kts 197°
2026-04-25 15:55 -23.83820 -46.82442 21756 ft 390 kts 197°
2026-04-25 15:55 -23.86478 -46.83084 22215 ft 392 kts 197°
2026-04-25 15:55 -23.89150 -46.83724 22645 ft 394 kts 197°
2026-04-25 15:56 -23.91837 -46.84366 23065 ft 396 kts 197°
2026-04-25 15:56 -23.94537 -46.85010 23487 ft 398 kts 197°
2026-04-25 15:56 -23.97265 -46.85662 23838 ft 400 kts 197°
2026-04-25 15:56 -23.99993 -46.86314 24181 ft 402 kts 197°
2026-04-25 15:57 -24.02735 -46.86969 24532 ft 404 kts 197°
2026-04-25 15:57 -24.05452 -46.87615 24856 ft 406 kts 197°
2026-04-25 15:57 -24.08223 -46.88280 25200 ft 408 kts 197°
2026-04-25 15:57 -24.11009 -46.88948 25540 ft 411 kts 197°
2026-04-25 15:58 -24.13808 -46.89618 25875 ft 413 kts 197°
2026-04-25 15:58 -24.16621 -46.90292 26215 ft 415 kts 197°
2026-04-25 15:58 -24.19446 -46.90969 26561 ft 416 kts 197°
2026-04-25 15:58 -24.22284 -46.91650 26898 ft 419 kts 197°
2026-04-25 15:59 -24.25142 -46.92335 27236 ft 421 kts 198°
2026-04-25 15:59 -24.28007 -46.93023 27566 ft 423 kts 198°
2026-04-25 15:59 -24.30887 -46.93714 27890 ft 425 kts 198°
2026-04-25 15:59 -24.33782 -46.94409 28218 ft 427 kts 198°
2026-04-25 16:00 -24.36693 -46.95109 28540 ft 429 kts 198°
2026-04-25 16:00 -24.37682 -46.95347 28646 ft 430 kts 198°
2026-04-25 16:00 -24.42557 -46.96519 29179 ft 433 kts 198°
2026-04-25 16:00 -24.45507 -46.97229 29488 ft 435 kts 198°
2026-04-25 16:01 -24.48471 -46.97942 29798 ft 437 kts 198°
2026-04-25 16:01 -24.51447 -46.98659 30079 ft 439 kts 198°
2026-04-25 16:01 -24.54442 -46.99381 30323 ft 441 kts 198°
2026-04-25 16:01 -24.57447 -47.00105 30562 ft 443 kts 197°
2026-04-25 16:02 -24.60410 -47.01005 30770 ft 438 kts 208°
2026-04-25 16:02 -24.63013 -47.02602 30991 ft 433 kts 216°
2026-04-25 16:02 -24.65581 -47.04367 31172 ft 437 kts 217°
2026-04-25 16:02 -24.68151 -47.06157 31415 ft 438 kts 217°
2026-04-25 16:03 -24.70727 -47.07971 31642 ft 440 kts 217°
2026-04-25 16:03 -24.73307 -47.09800 31878 ft 442 kts 217°
2026-04-25 16:03 -24.75893 -47.11635 32182 ft 442 kts 217°
2026-04-25 16:03 -24.78477 -47.13469 32491 ft 442 kts 217°
2026-04-25 16:04 -24.81057 -47.15302 32806 ft 441 kts 217°
2026-04-25 16:04 -24.83636 -47.17135 33131 ft 441 kts 217°
2026-04-25 16:04 -24.86213 -47.18967 33453 ft 441 kts 218°
2026-04-25 16:04 -24.88790 -47.20800 33779 ft 440 kts 218°
2026-04-25 16:05 -24.91364 -47.22631 33935 ft 441 kts 218°
2026-04-25 16:05 -24.93934 -47.24461 33935 ft 439 kts 218°
2026-04-25 16:06 -25.01598 -47.29924 33933 ft 437 kts 218°
2026-04-25 16:06 -25.06707 -47.33571 33934 ft 437 kts 218°
2026-04-25 16:07 -25.11812 -47.37219 33933 ft 437 kts 218°
2026-04-25 16:07 -25.16876 -47.40842 33931 ft 436 kts 218°
2026-04-25 16:08 -25.21978 -47.44493 33930 ft 436 kts 218°
2026-04-25 16:08 -25.27072 -47.48148 33930 ft 436 kts 218°
2026-04-25 16:09 -25.32161 -47.51802 33929 ft 436 kts 218°
2026-04-25 16:09 -25.37258 -47.55465 33926 ft 436 kts 219°
2026-04-25 16:10 -25.41483 -47.58504 33927 ft 436 kts 219°
2026-04-25 16:10 -25.47427 -47.62785 33931 ft 436 kts 219°
2026-04-25 16:11 -25.52478 -47.66427 33926 ft 436 kts 219°
2026-04-25 16:11 -25.56729 -47.69494 33928 ft 435 kts 219°
2026-04-25 16:12 -25.61799 -47.73155 33922 ft 435 kts 219°
2026-04-25 16:12 -25.66826 -47.76790 33919 ft 434 kts 219°
2026-04-25 16:13 -25.71886 -47.80452 33926 ft 433 kts 219°
2026-04-25 16:13 -25.76928 -47.84104 33842 ft 430 kts 219°
2026-04-25 16:13 -25.79435 -47.85922 33025 ft 431 kts 219°
2026-04-25 16:14 -25.81963 -47.87755 32058 ft 436 kts 219°
2026-04-25 16:14 -25.84490 -47.89589 31388 ft 431 kts 219°
2026-04-25 16:14 -25.86985 -47.91401 30907 ft 425 kts 219°
2026-04-25 16:14 -25.89447 -47.93190 30393 ft 421 kts 219°
2026-04-25 16:15 -25.91892 -47.94967 29808 ft 419 kts 219°
2026-04-25 16:15 -25.94322 -47.96735 29160 ft 416 kts 219°
2026-04-25 16:15 -25.96738 -47.98493 28585 ft 412 kts 219°
2026-04-25 16:15 -25.99120 -48.00226 28039 ft 405 kts 219°
2026-04-25 16:16 -26.01463 -48.01933 27513 ft 401 kts 219°
2026-04-25 16:16 -26.03912 -48.03457 26868 ft 410 kts 207°
2026-04-25 16:16 -26.06591 -48.04444 26350 ft 409 kts 206°
2026-04-25 16:16 -26.09269 -48.05476 25874 ft 405 kts 206°
2026-04-25 16:17 -26.11929 -48.06488 25367 ft 403 kts 206°
2026-04-25 16:17 -26.14580 -48.07487 24847 ft 402 kts 206°
2026-04-25 16:17 -26.17233 -48.08484 24329 ft 401 kts 206°
2026-04-25 16:17 -26.19870 -48.09475 23815 ft 399 kts 205°
2026-04-25 16:18 -26.22489 -48.10458 23268 ft 395 kts 205°
2026-04-25 16:18 -26.23370 -48.10789 23068 ft 394 kts 205°
2026-04-25 16:18 -26.27632 -48.12391 22220 ft 383 kts 205°
2026-04-25 16:18 -26.30140 -48.13334 21742 ft 378 kts 205°
2026-04-25 16:19 -26.32627 -48.14269 21281 ft 376 kts 205°
2026-04-25 16:19 -26.35093 -48.15198 20829 ft 374 kts 205°
2026-04-25 16:19 -26.37553 -48.16124 20380 ft 372 kts 205°
2026-04-25 16:20 -26.42432 -48.17963 19500 ft 369 kts 204°
2026-04-25 16:20 -26.44861 -48.18878 19065 ft 367 kts 204°
2026-04-25 16:20 -26.49655 -48.20687 18218 ft 363 kts 204°
2026-04-25 16:21 -26.52034 -48.21586 17740 ft 359 kts 203°
2026-04-25 16:21 -26.54389 -48.22475 17300 ft 356 kts 203°
2026-04-25 16:21 -26.56731 -48.23361 16887 ft 354 kts 203°
2026-04-25 16:21 -26.59054 -48.24239 16475 ft 351 kts 203°
2026-04-25 16:22 -26.61362 -48.25112 16071 ft 349 kts 203°
2026-04-25 16:22 -26.63655 -48.25980 15671 ft 347 kts 203°
2026-04-25 16:22 -26.65930 -48.26841 15270 ft 345 kts 203°
2026-04-25 16:22 -26.68196 -48.27699 14876 ft 343 kts 203°
2026-04-25 16:23 -26.70450 -48.28553 14481 ft 341 kts 203°
2026-04-25 16:23 -26.72696 -48.29405 14089 ft 340 kts 202°
2026-04-25 16:23 -26.74930 -48.30252 13693 ft 338 kts 202°
2026-04-25 16:23 -26.77128 -48.31085 13257 ft 337 kts 202°
2026-04-25 16:24 -26.79341 -48.31925 12906 ft 334 kts 202°
2026-04-25 16:24 -26.81536 -48.32758 12481 ft 333 kts 202°
2026-04-25 16:24 -26.83724 -48.33590 12064 ft 331 kts 202°
2026-04-25 16:24 -26.85899 -48.34417 11680 ft 329 kts 202°
2026-04-25 16:25 -26.88063 -48.35240 11300 ft 327 kts 202°
2026-04-25 16:25 -26.89511 -48.35790 11143 ft 323 kts 202°
2026-04-25 16:25 -26.92275 -48.36844 10938 ft 310 kts 204°
2026-04-25 16:25 -26.94170 -48.37893 10749 ft 299 kts 214°
2026-04-25 16:26 -26.95943 -48.39049 10565 ft 291 kts 213°
2026-04-25 16:26 -26.97674 -48.40167 10400 ft 284 kts 213°
2026-04-25 16:26 -26.99364 -48.41255 10230 ft 277 kts 213°
2026-04-25 16:26 -27.01038 -48.42329 10063 ft 278 kts 213°
2026-04-25 16:27 -27.02724 -48.43410 9890 ft 278 kts 213°
2026-04-25 16:27 -27.04382 -48.44474 9713 ft 278 kts 213°
2026-04-25 16:27 -27.06080 -48.45562 9526 ft 277 kts 213°
2026-04-25 16:27 -27.07733 -48.46622 9356 ft 277 kts 213°
2026-04-25 16:28 -27.09405 -48.47696 9178 ft 276 kts 213°
2026-04-25 16:28 -27.11074 -48.48767 9015 ft 276 kts 213°
2026-04-25 16:28 -27.12737 -48.49835 8871 ft 275 kts 213°
2026-04-25 16:28 -27.14396 -48.50900 8744 ft 275 kts 213°
2026-04-25 16:29 -27.16060 -48.51969 8585 ft 275 kts 213°
2026-04-25 16:29 -27.17717 -48.53033 8419 ft 274 kts 213°
2026-04-25 16:29 -27.19347 -48.54082 8248 ft 273 kts 213°
2026-04-25 16:29 -27.20993 -48.55140 8092 ft 272 kts 213°
2026-04-25 16:30 -27.22750 -48.55965 7869 ft 275 kts 200°
2026-04-25 16:30 -27.24582 -48.56593 7654 ft 275 kts 201°
2026-04-25 16:30 -27.26405 -48.57228 7455 ft 274 kts 201°
2026-04-25 16:30 -27.28224 -48.57866 7254 ft 273 kts 201°
2026-04-25 16:31 -27.30034 -48.58504 7061 ft 272 kts 201°
2026-04-25 16:31 -27.31840 -48.59142 6880 ft 272 kts 201°
2026-04-25 16:31 -27.33646 -48.59781 6704 ft 273 kts 201°
2026-04-25 16:31 -27.34938 -48.60239 6545 ft 272 kts 201°
2026-04-25 16:32 -27.36736 -48.60875 6344 ft 269 kts 201°
2026-04-25 16:32 -27.38508 -48.61502 6143 ft 265 kts 201°
2026-04-25 16:32 -27.40250 -48.62120 5941 ft 260 kts 201°
2026-04-25 16:32 -27.41948 -48.62722 5753 ft 251 kts 201°
2026-04-25 16:33 -27.43591 -48.63304 5576 ft 244 kts 201°
2026-04-25 16:33 -27.45195 -48.63870 5407 ft 238 kts 201°
2026-04-25 16:33 -27.46737 -48.64418 5262 ft 233 kts 201°
2026-04-25 16:33 -27.48273 -48.64963 5080 ft 229 kts 200°
2026-04-25 16:34 -27.49769 -48.65612 4882 ft 231 kts 212°
2026-04-25 16:34 -27.51154 -48.66546 4518 ft 233 kts 215°
2026-04-25 16:34 -27.52542 -48.67504 4213 ft 235 kts 214°
2026-04-25 16:34 -27.53955 -48.68470 3872 ft 241 kts 213°
2026-04-25 16:35 -27.55411 -48.69453 3502 ft 246 kts 211°
2026-04-25 16:35 -27.57055 -48.69917 3196 ft 248 kts 178°
2026-04-25 16:35 -27.58661 -48.69300 2891 ft 244 kts 144°
2026-04-25 16:35 -27.59717 -48.67913 2649 ft 225 kts 119°
2026-04-25 16:36 -27.60498 -48.66443 2336 ft 213 kts 120°
2026-04-25 16:36 -27.60745 -48.65985 2210 ft 209 kts 120°
2026-04-25 16:36 -27.61890 -48.63860 1942 ft 172 kts 120°
2026-04-25 16:36 -27.62495 -48.62733 1768 ft 167 kts 117°
2026-04-25 16:37 -27.63064 -48.61572 1314 ft 168 kts 115°
2026-04-25 16:37 -27.63610 -48.60440 1011 ft 163 kts 121°
2026-04-25 16:37 -27.64221 -48.59430 854 ft 151 kts 122°
2026-04-25 16:37 -27.64762 -48.58432 653 ft 147 kts 122°
2026-04-25 16:38 -27.65283 -48.57464 434 ft 143 kts 123°
2026-04-25 16:38 -27.65810 -48.56512 257 ft 141 kts 123°
2026-04-25 16:38 -27.66322 -48.55580 136 ft 142 kts 122°
2026-04-25 16:38 -27.66838 -48.54624 35 ft 136 kts 123°
2026-04-25 16:39 -27.67238 -48.53885 25 ft 76 kts 122°
2026-04-25 16:39 -27.67409 -48.53566 28 ft 32 kts 122°
2026-04-25 16:39 -27.67528 -48.53345 29 ft 33 kts 122°
2026-04-25 16:39 -27.67637 -48.53145 29 ft 24 kts 122°
2026-04-25 16:40 -27.67731 -48.53085 28 ft 16 kts 194°
2026-04-25 16:40 -27.67802 -48.53177 27 ft 18 kts 272°
2026-04-25 16:40 -27.67744 -48.53305 29 ft 19 kts 301°
2026-04-25 16:40 -27.67666 -48.53451 30 ft 24 kts 301°
2026-04-25 16:41 -27.67579 -48.53619 30 ft 26 kts 300°
2026-04-25 16:41 -27.67549 -48.53679 30 ft 26 kts 300°
2026-04-25 16:41 -27.67504 -48.53768 30 ft 27 kts 299°